Home > Weather > Hong Kong > Past weeks

Flag for Hong Kong Weather for the Past 2 Weeks in Hong Kong, Hong Kong

Now
54 °F

Scattered clouds.


Feels Like: 52 °F
Forecast: 50 / 58 °F
Wind: 7 mph from Northeast

Location: National Airport

Current Time: Feb 15, 2016 at 7:40:23 AM

Latest Report: Feb 15, 2016 at 7:00 AM


Visibility: N/A

Pressure: 30.27 "Hg

Humidity: 47%

Dew point: 34 °F

Location of Hong KongLocation

Historic Weather in Hong Kong — Graph

°F

Hong Kong Temperature Yesterday

Maximum temperature yesterday: 75 °F (at 12:00 AM)
Minimum temperature yesterday: 64 °F (at 11:30 PM)
Average temperature yesterday: 70 °F

High & Low Weather Summary for the Past Weeks

 TemperatureHumidityPressure
High82 °F (Feb 13, 2:00 PM)100% (Feb 1, 2:00 AM)30.36 "Hg (Feb 1, 2:00 AM)
Low46 °F (Feb 2, 1:00 PM)12% (Feb 8, 12:00 PM)29.83 "Hg (Feb 12, 3:30 PM)
Average62 °F62%30.12 "Hg
* Reported Jan 31 6:00 AM — Feb 15 6:00 AM, Hong Kong, Weather by CustomWeather, © 2016

Note: Actual official high and low records may vary slightly from our data, if they occured in-between our weather recording intervals... More about our weather records

Advertising

Hong Kong Weather History for the Previous 24 Hours

 ConditionsComfort  
Time TempWeatherWind HumidityBarometerVisibility
6:00 AM
Mon, Feb 15
55 °FPassing clouds.13 mph47%30.21 "HgN/A
5:30 AM55 °FPassing clouds.12 mph47%30.21 "HgN/A
4:30 AM55 °FPassing clouds.12 mph55%30.21 "HgN/A
4:00 AM57 °FPassing clouds.13 mph55%30.18 "HgN/A
3:30 AM59 °FPassing clouds.10 mph51%30.18 "HgN/A
3:00 AM59 °FPassing clouds.13 mph51%30.18 "HgN/A
2:30 AM59 °FPassing clouds.9 mph55%30.18 "HgN/A
2:00 AM61 °FPassing clouds.13 mph52%30.18 "HgN/A
1:30 AM61 °FPassing clouds.10 mph55%30.18 "HgN/A
1:00 AM61 °FPassing clouds.13 mph55%30.18 "HgN/A
12:30 AM63 °FPassing clouds.12 mph52%30.15 "HgN/A
12:00 AM63 °FPassing clouds.13 mph52%30.15 "HgN/A
11:30 PM
Sun, Feb 14
64 °FPassing clouds.12 mph52%30.15 "HgN/A
11:00 PM66 °FPassing clouds.10 mph52%30.12 "HgN/A
10:30 PM66 °FPassing clouds.9 mph56%30.12 "HgN/A
10:00 PM66 °FPassing clouds.10 mph56%30.12 "HgN/A
9:30 PM68 °FPassing clouds.7 mph53%30.09 "HgN/A
9:00 PM68 °FPassing clouds.9 mph53%30.07 "HgN/A
8:30 PM70 °FPassing clouds.8 mph53%30.07 "HgN/A
8:00 PM68 °FPassing clouds.9 mph56%30.04 "HgN/A
7:30 PM68 °FPassing clouds.12 mph64%30.04 "HgN/A
7:00 PM68 °FPassing clouds.14 mph69%30.01 "HgN/A
6:30 PM68 °FPassing clouds.15 mph69%30.01 "HgN/A
6:00 PM70 °FScattered clouds.15 mph64%29.98 "HgN/A
5:30 PM70 °FScattered clouds.16 mph69%29.98 "HgN/A
5:00 PM70 °FScattered clouds.16 mph69%29.95 "HgN/A
4:30 PM70 °FScattered clouds.16 mph69%29.95 "HgN/A
4:00 PM70 °FScattered clouds.17 mph69%29.95 "HgN/A
3:30 PM72 °FScattered clouds.15 mph65%29.92 "HgN/A
3:00 PM70 °FScattered clouds.16 mph73%29.95 "HgN/A
2:30 PM70 °FScattered clouds.8 mph73%29.95 "HgN/A
2:00 PM72 °FScattered clouds.6 mph69%29.95 "HgN/A
1:30 PM72 °FScattered clouds.7 mph69%29.95 "HgN/A
1:00 PM72 °FScattered clouds.6 mph69%29.98 "Hg6 mi
12:30 PM70 °FScattered clouds.8 mph73%29.98 "Hg6 mi
12:00 PM70 °FScattered clouds.6 mph73%29.98 "Hg5 mi
11:30 AM68 °FScattered clouds.7 mph78%29.98 "Hg4 mi
11:00 AM70 °FScattered clouds.15 mph78%29.98 "Hg4 mi
10:30 AM73 °FMild.8 mph83%29.98 "Hg1 mi
10:00 AM75 °FScattered clouds.6 mph83%29.98 "Hg3 mi
9:30 AM75 °FScattered clouds.3 mph83%29.98 "Hg4 mi
9:00 AM72 °FMild.2 mph88%29.98 "Hg2 mi
8:30 AM72 °FMild.2 mph88%29.95 "Hg1 mi
8:00 AM70 °FMild.3 mph94%29.95 "Hg1 mi
7:30 AM72 °FMild.6 mph94%29.92 "Hg1 mi
7:00 AM72 °FMild.7 mph88%29.92 "Hg1 mi
Weather by CustomWeather, © 2016

See weather overviewHow to use our weather pages